BEIDOU-2 IGSO-2

Last updated on Tue Sep 22 2026 00:03:12 GMT+0000 (Coordinated Universal Time)

1 37256U 10068A 26263.85907093 -.00000152 00000+0 00000+0 0 9995 2 37256 47.3773 270.6330 0057374 216.8661 286.8874 1.00251768 57750
UTC large
Height (km)
Speed (km/s)
/
Latitude / Longitude
Inclination (degrees)
Orbital Period (minutes)
Azimuth
Elevation
Range (km)
Doppler Factor

Next 0 passes for location: London (51.5072 / 0.1276)

No passes found over London.
BEIDOU-2 IGSO-2